[[{"header":{"parameterUnit":"m.s-1","parameterCategory":1,"la1":30.2991,"la2":30.254,"lo1":-89.0895,"lo2":-89.0444,"dy":0.0017,"dx":0.0017,"nx":28,"ny":28,"refTime":"2024-10-09T03:00:00:Z","depth":0,"parameterNumber":2,"parameterNumberName":"U-component_of_WINDS"},"data":[0,0,0,0,0,0,0,0,0,0,0,0,0,0,0,0,0,0,0,0,0,0,0,0,0,0,0,0,0,0,0,0,0,0,0,0,0,0,0,0,0,0,0,0,0,0,0,0,0,0,0,0,0,0,0,0,0,0,-0.5554,-0.5554,0,-0.5517,-0.5517,-0.5516,-0.55,-0.55,-0.55,-0.55,-0.546,-0.5459,-0.5458,0,0,0,0,0,0,0,0,0,0,0,0,0,-0.5608,-0.5608,-0.5554,-0.5554,-0.5553,-0.5517,-0.5517,-0.5516,-0.55,-0.55,-0.55,-0.55,-0.546,-0.5459,-0.5458,0,0,0,0,0,0,0,0,0,0,0,0,0,-0.5579,-0.5607,-0.5554,-0.5541,-0.5539,-0.5517,-0.5517,-0.5516,-0.55,-0.55,-0.55,-0.55,-0.5461,-0.5459,-0.5457,-0.5445,0,0,-0.5452,-0.5452,0,0,0,0,0,0,0,0,-0.5581,-0.5577,-0.5543,-0.5542,-0.554,-0.5513,-0.5521,-0.5492,-0.55,-0.5515,-0.55,-0.55,-0.5477,-0.5474,-0.5467,-0.5443,-0.5442,-0.5452,-0.5451,-0.545,-0.545,0,0,0,0,0,0,0,-0.5583,-0.5579,-0.554,-0.5543,-0.5541,-0.5536,-0.5532,-0.5515,-0.5496,-0.5514,-0.5512,-0.5508,-0.5477,-0.5469,-0.5466,-0.5441,-0.5452,-0.5451,-0.545,-0.5449,-0.5404,-0.5404,0,0,0,0,0,0,-0.5588,-0.5581,-0.5541,-0.5538,-0.5561,-0.5535,-0.553,-0.5522,-0.5496,-0.5492,-0.5508,-0.5508,-0.5472,-0.5468,-0.5465,-0.5448,-0.545,-0.5449,-0.5448,-0.5404,-0.5404,-0.5404,0,0,0,0,0,0,-0.5589,-0.5584,-0.5542,-0.5559,-0.5553,-0.5534,-0.5524,-0.5521,-0.5513,-0.5492,-0.5488,-0.5504,-0.5472,-0.5467,-0.545,-0.5446,-0.5448,-0.5447,-0.5404,-0.5404,-0.5404,-0.5415,0,0,0,0,0,0,-0.5591,-0.5585,-0.5581,-0.5559,-0.5553,-0.5529,-0.5524,-0.552,-0.5511,-0.551,-0.5487,-0.5484,-0.5471,-0.5453,-0.5448,-0.5444,-0.5445,-0.5405,-0.5404,-0.5404,-0.5415,-0.5415,-0.5416,0,0,0,0,0,-0.5593,-0.5585,-0.5581,-0.5576,-0.5547,-0.5529,-0.5525,-0.5512,-0.551,-0.5506,-0.5492,-0.5484,-0.5448,-0.5451,-0.5446,-0.5441,-0.5405,-0.5404,-0.5404,-0.5415,-0.5415,-0.5416,0,0,0,0,0,0,-0.5606,-0.5582,-0.5577,-0.5563,-0.5548,-0.5526,-0.552,-0.5513,-0.5498,-0.5497,-0.548,-0.5475,-0.546,-0.5449,-0.5453,-0.5427,-0.5425,-0.5424,-0.5435,-0.5436,-0.5436,-0.5439,-0.5444,0,0,0,0,0,-0.5608,-0.5596,-0.5575,-0.5564,-0.5557,-0.554,-0.5532,-0.5522,-0.5506,-0.55,-0.5485,-0.5469,-0.5454,-0.5444,-0.5429,-0.5413,-0.5407,-0.5407,-0.5408,-0.5408,-0.5407,-0.5397,-0.5396,-0.5402,-0.5402,-0.5402,0,0,-0.5611,-0.5596,-0.5589,-0.5567,-0.5555,-0.5541,-0.5535,-0.5522,-0.5512,-0.5498,-0.5481,-0.5469,-0.545,-0.5434,-0.5426,-0.5424,-0.5404,-0.5407,-0.5408,-0.5406,-0.5396,-0.5395,-0.5395,-0.5402,-0.5402,-0.5402,0,0,-0.5609,-0.5597,-0.5587,-0.5574,-0.5556,-0.5544,-0.5541,-0.5521,-0.5512,-0.5495,-0.5484,-0.5471,-0.5446,-0.5432,-0.5422,-0.5414,-0.5406,-0.541,-0.5411,-0.5401,-0.5401,-0.54,-0.5397,-0.5396,-0.5409,-0.5409,-0.5409,0,-0.5615,-0.5596,-0.5582,-0.5569,-0.5559,-0.5546,-0.5535,-0.5523,-0.55,-0.5493,-0.5492,-0.5458,-0.5445,-0.5424,-0.5422,-0.5415,-0.541,-0.5412,-0.5402,-0.5401,-0.5401,-0.5397,-0.5396,-0.5409,-0.5409,-0.5409,-0.5409,0,-0.5603,-0.559,-0.5583,-0.5562,-0.5551,-0.5539,-0.5523,-0.5513,-0.5504,-0.5492,-0.5474,-0.5457,-0.5438,-0.5432,-0.5424,-0.541,-0.541,-0.5406,-0.5403,-0.5401,-0.5397,-0.5396,-0.541,-0.541,-0.541,-0.5409,0,0,-0.561,-0.5581,-0.5579,-0.5568,-0.5546,-0.5535,-0.5522,-0.5504,-0.5495,-0.548,-0.5467,-0.5445,-0.5441,-0.5429,-0.5419,-0.541,-0.5404,-0.5407,-0.5406,-0.5406,-0.5387,-0.539,-0.5389,-0.5399,-0.5398,-0.5398,-0.5388,0,-0.5605,-0.5582,-0.5569,-0.555,-0.5537,-0.5524,-0.5512,-0.5497,-0.5485,-0.5471,-0.5458,-0.5442,-0.5438,-0.5431,-0.5422,-0.5407,-0.54,-0.5407,-0.5386,-0.5386,-0.5391,-0.5387,-0.5391,-0.5383,-0.5387,-0.5387,-0.5387,0,-0.5597,-0.5582,-0.5562,-0.5541,-0.5535,-0.5525,-0.5506,-0.5494,-0.5475,-0.5467,-0.5454,-0.5443,-0.5427,-0.5426,-0.5403,-0.5409,-0.5399,-0.539,-0.5389,-0.5387,-0.5386,-0.5384,-0.538,-0.5379,-0.5384,-0.5384,-0.5385,0,-0.5603,-0.5578,-0.5563,-0.5554,-0.5529,-0.5522,-0.5511,-0.5493,-0.5482,-0.5466,-0.5459,-0.544,-0.543,-0.5415,-0.54,-0.54,-0.5378,-0.5376,-0.537,-0.537,-0.5366,-0.5366,-0.536,-0.536,-0.536,-0.536,-0.536,0,-0.5599,-0.5588,-0.5565,-0.5556,-0.5542,-0.5526,-0.5513,-0.55,-0.5484,-0.5471,-0.5458,-0.5446,-0.5427,-0.5412,-0.5399,-0.5382,-0.5377,-0.5369,-0.5366,-0.537,-0.5371,-0.5364,-0.5364,-0.536,-0.536,-0.536,-0.536,0,-0.5604,-0.5589,-0.5571,-0.5549,-0.5543,-0.5534,-0.5514,-0.5503,-0.5491,-0.5474,-0.547,-0.5449,-0.5431,-0.5414,-0.5389,-0.5381,-0.5363,-0.5359,-0.5369,-0.5368,-0.5363,-0.5363,-0.5351,-0.5348,-0.5351,-0.5351,-0.5351,0,-0.5603,-0.5594,-0.557,-0.5561,-0.555,-0.5536,-0.5525,-0.5508,-0.5497,-0.5475,-0.5467,-0.5448,-0.5432,-0.5403,-0.5385,-0.5366,-0.5361,-0.5358,-0.5358,-0.5362,-0.536,-0.5361,-0.536,-0.5358,-0.5359,-0.5359,-0.5359,0,-0.5602,-0.5594,-0.5579,-0.5562,-0.5549,-0.5534,-0.5519,-0.5511,-0.5492,-0.548,-0.5461,-0.5449,-0.5423,-0.5404,-0.5383,-0.537,-0.5361,-0.5359,-0.5356,-0.536,-0.5367,-0.5363,-0.537,-0.5359,-0.5359,-0.5359,-0.5359,-0.5359,-0.5603,-0.5594,-0.5576,-0.5559,-0.5546,-0.5531,-0.552,-0.5506,-0.5491,-0.5469,-0.546,-0.5441,-0.5421,-0.5392,-0.5379,-0.5363,-0.5361,-0.5358,-0.5357,-0.5356,-0.5357,-0.5369,-0.5359,-0.5359,-0.5359,-0.5359,-0.5359,0,-0.5601,-0.5588,-0.5573,-0.5552,-0.5539,-0.5531,-0.5513,-0.5503,-0.5486,-0.5469,-0.5453,-0.5431,-0.5412,-0.5393,-0.5372,-0.5363,-0.5358,-0.5358,-0.5359,-0.5356,-0.536,-0.5364,-0.5363,-0.5363,-0.5363,-0.5363,-0.5363,-0.5363,-0.5598,-0.5582,-0.5572,-0.5549,-0.5536,-0.5518,-0.5508,-0.5494,-0.548,-0.5456,-0.5441,-0.5428,-0.541,-0.5388,-0.5369,-0.5364,-0.5357,-0.5358,-0.5351,-0.5356,-0.5356,-0.5356,-0.5359,-0.5357,-0.5357,-0.5348,-0.5348,-0.5348]},{"header":{"parameterUnit":"m.s-1","parameterCategory":1,"la1":30.2991,"la2":30.254,"lo1":-89.0895,"lo2":-89.0444,"dy":0.0017,"dx":0.0017,"nx":28,"ny":28,"refTime":"2024-10-09T03:00:00:Z","depth":0,"parameterNumber":3,"parameterNumberName":"V-component_of_WINDS"},"data":[0,0,0,0,0,0,0,0,0,0,0,0,0,0,0,0,0,0,0,0,0,0,0,0,0,0,0,0,0,0,0,0,0,0,0,0,0,0,0,0,0,0,0,0,0,0,0,0,0,0,0,0,0,0,0,0,0,0,-3.8465,-3.8465,0,-3.8476,-3.8476,-3.8477,-3.8465,-3.8465,-3.8464,-3.8464,-3.8472,-3.8473,-3.8473,0,0,0,0,0,0,0,0,0,0,0,0,0,-3.8431,-3.8432,-3.8465,-3.8465,-3.8465,-3.8476,-3.8476,-3.8477,-3.8465,-3.8465,-3.8464,-3.8464,-3.8472,-3.8473,-3.8473,0,0,0,0,0,0,0,0,0,0,0,0,0,-3.8445,-3.8432,-3.8465,-3.8461,-3.8461,-3.8476,-3.8477,-3.8477,-3.8465,-3.8465,-3.8464,-3.8463,-3.8472,-3.8472,-3.8473,-3.8492,0,0,-3.8476,-3.8477,0,0,0,0,0,0,0,0,-3.8444,-3.8446,-3.8461,-3.8461,-3.8461,-3.8469,-3.8468,-3.8482,-3.8466,-3.8463,-3.8464,-3.8463,-3.8471,-3.8472,-3.8476,-3.8493,-3.8493,-3.8476,-3.8477,-3.8477,-3.8478,0,0,0,0,0,0,0,-3.8443,-3.8445,-3.8469,-3.8462,-3.8461,-3.8458,-3.8459,-3.847,-3.8471,-3.8464,-3.8463,-3.8465,-3.8471,-3.8475,-3.8476,-3.8493,-3.8476,-3.8477,-3.8478,-3.8478,-3.8529,-3.853,0,0,0,0,0,0,-3.8443,-3.8445,-3.8469,-3.847,-3.8451,-3.8459,-3.846,-3.8467,-3.8471,-3.8471,-3.8465,-3.8464,-3.8473,-3.8475,-3.8476,-3.8501,-3.8477,-3.8478,-3.8479,-3.8528,-3.8529,-3.853,0,0,0,0,0,0,-3.8442,-3.8445,-3.8468,-3.8457,-3.846,-3.846,-3.8468,-3.8467,-3.8471,-3.8472,-3.8472,-3.8469,-3.8473,-3.8475,-3.8489,-3.8501,-3.8479,-3.8479,-3.8528,-3.8529,-3.853,-3.8548,0,0,0,0,0,0,-3.8441,-3.8445,-3.8452,-3.8457,-3.846,-3.8482,-3.8468,-3.8468,-3.8473,-3.8472,-3.8475,-3.8475,-3.8473,-3.8488,-3.849,-3.8501,-3.848,-3.8526,-3.8528,-3.8529,-3.8547,-3.855,-3.8553,0,0,0,0,0,-3.844,-3.8456,-3.8453,-3.8456,-3.847,-3.8483,-3.8484,-3.8482,-3.8474,-3.8482,-3.8483,-3.8475,-3.8499,-3.849,-3.8492,-3.8504,-3.8526,-3.8528,-3.8529,-3.8545,-3.8549,-3.8553,0,0,0,0,0,0,-3.845,-3.8456,-3.8453,-3.8471,-3.8477,-3.8481,-3.849,-3.8486,-3.8493,-3.8491,-3.8487,-3.8488,-3.8504,-3.8505,-3.8494,-3.8524,-3.8511,-3.8513,-3.8522,-3.8526,-3.8529,-3.8529,-3.8481,0,0,0,0,0,-3.8455,-3.8465,-3.847,-3.8485,-3.8488,-3.8489,-3.8494,-3.8492,-3.8498,-3.85,-3.8501,-3.8506,-3.8515,-3.852,-3.8528,-3.8547,-3.8548,-3.8556,-3.8559,-3.8562,-3.8564,-3.8576,-3.8581,-3.8536,-3.8536,-3.8536,0,0,-3.8463,-3.8468,-3.8475,-3.8487,-3.8492,-3.8503,-3.8491,-3.8502,-3.8511,-3.8501,-3.8516,-3.8517,-3.8522,-3.854,-3.8548,-3.8541,-3.8577,-3.8564,-3.8566,-3.8567,-3.8579,-3.8583,-3.8587,-3.8537,-3.8537,-3.8537,0,0,-3.8486,-3.849,-3.8505,-3.851,-3.8518,-3.8518,-3.8522,-3.8527,-3.8529,-3.8544,-3.8538,-3.8547,-3.8561,-3.8566,-3.857,-3.8598,-3.8592,-3.86,-3.8616,-3.8628,-3.8632,-3.8635,-3.8647,-3.8651,-3.8602,-3.8602,-3.8602,0,-3.8496,-3.8513,-3.8512,-3.8526,-3.8532,-3.8525,-3.8541,-3.8545,-3.8554,-3.8559,-3.8552,-3.8572,-3.8574,-3.8594,-3.8601,-3.8604,-3.8609,-3.86,-3.8632,-3.8635,-3.8638,-3.8649,-3.8653,-3.8603,-3.8603,-3.8603,-3.8603,0,-3.8526,-3.8538,-3.8549,-3.8561,-3.8568,-3.8582,-3.8583,-3.8591,-3.8589,-3.859,-3.8607,-3.861,-3.862,-3.8624,-3.8621,-3.8644,-3.864,-3.8633,-3.862,-3.8643,-3.8654,-3.8658,-3.8605,-3.8605,-3.8604,-3.8604,0,0,-3.8553,-3.8567,-3.8571,-3.8577,-3.8586,-3.8596,-3.861,-3.8621,-3.8629,-3.8635,-3.8648,-3.8662,-3.8656,-3.8661,-3.8658,-3.8669,-3.8693,-3.866,-3.866,-3.8667,-3.8721,-3.8728,-3.8733,-3.8689,-3.869,-3.869,-3.8721,0,-3.8578,-3.8604,-3.8605,-3.8629,-3.8642,-3.8637,-3.865,-3.8657,-3.8659,-3.8669,-3.8671,-3.8682,-3.8672,-3.8676,-3.8686,-3.8688,-3.8704,-3.8685,-3.8701,-3.8701,-3.8701,-3.8738,-3.8744,-3.8773,-3.8725,-3.8726,-3.8726,0,-3.8609,-3.862,-3.8646,-3.8657,-3.8662,-3.8673,-3.8685,-3.8695,-3.8703,-3.8704,-3.8712,-3.8708,-3.8723,-3.871,-3.8731,-3.8719,-3.8725,-3.8727,-3.8728,-3.873,-3.8716,-3.8742,-3.8782,-3.8787,-3.8732,-3.8732,-3.8731,0,-3.8629,-3.865,-3.8669,-3.8674,-3.8686,-3.8695,-3.87,-3.8708,-3.8715,-3.8725,-3.8731,-3.8741,-3.8747,-3.8756,-3.8756,-3.8746,-3.8778,-3.8764,-3.878,-3.878,-3.8787,-3.8787,-3.883,-3.8789,-3.8789,-3.8789,-3.8789,0,-3.8656,-3.8673,-3.8679,-3.8691,-3.871,-3.871,-3.8729,-3.8733,-3.874,-3.8753,-3.8749,-3.876,-3.8759,-3.8771,-3.8771,-3.8789,-3.8791,-3.8793,-3.8793,-3.8794,-3.8794,-3.8799,-3.8798,-3.879,-3.879,-3.8789,-3.8789,0,-3.8682,-3.8686,-3.8707,-3.8718,-3.8721,-3.8735,-3.8744,-3.8755,-3.8758,-3.8774,-3.8778,-3.8782,-3.8796,-3.8797,-3.8812,-3.8812,-3.8835,-3.8832,-3.8833,-3.8833,-3.8849,-3.8849,-3.8898,-3.8905,-3.8858,-3.8859,-3.8859,0,-3.87,-3.8713,-3.8726,-3.8735,-3.8742,-3.8756,-3.8765,-3.8766,-3.8776,-3.8788,-3.8798,-3.8812,-3.8824,-3.8847,-3.885,-3.8863,-3.8861,-3.8877,-3.8862,-3.8864,-3.8863,-3.8863,-3.8865,-3.888,-3.8881,-3.8881,-3.8882,0,-3.8731,-3.8734,-3.8747,-3.8763,-3.8774,-3.8786,-3.8797,-3.8804,-3.8807,-3.8818,-3.8833,-3.8843,-3.886,-3.8875,-3.8888,-3.8892,-3.8888,-3.8887,-3.8891,-3.8893,-3.8894,-3.8896,-3.8843,-3.8885,-3.8885,-3.8885,-3.8885,-3.8884,-3.8754,-3.8767,-3.878,-3.8796,-3.8805,-3.8816,-3.8828,-3.8834,-3.8848,-3.8864,-3.8863,-3.8881,-3.8891,-3.8908,-3.8914,-3.8927,-3.8922,-3.8928,-3.893,-3.8931,-3.8934,-3.8891,-3.8929,-3.8929,-3.8929,-3.8929,-3.8929,0,-3.8788,-3.8796,-3.8811,-3.8829,-3.8842,-3.8838,-3.8851,-3.8862,-3.8878,-3.8889,-3.8901,-3.892,-3.8935,-3.8941,-3.8956,-3.8966,-3.8964,-3.8969,-3.8969,-3.8971,-3.8937,-3.8933,-3.8971,-3.8971,-3.8971,-3.8971,-3.8971,-3.8971,-3.8807,-3.8829,-3.8833,-3.8861,-3.8869,-3.8888,-3.8896,-3.8906,-3.8915,-3.8937,-3.895,-3.8955,-3.8964,-3.898,-3.8993,-3.8995,-3.9001,-3.9008,-3.9008,-3.8977,-3.8973,-3.8969,-3.8965,-3.9008,-3.9009,-3.9041,-3.9041,-3.9041]}]]